Location: Songkhla
(7.2000°N, 100.6000°E)
Time: 07:55:34
(UTC+07:00)

Daily predictions for brighter satellites

Satellite Brightness Start Highest point End
(mag) Time Altitude Azimuth Time Altitude Azimuth Time Altitude Azimuth
Ariane H10-3 4.1 17:45:15 10° W 17:50:33 73° S 18:51:15 10° E
SMAP 3.6 18:19:19 10° S 18:23:55 65° WSW 18:28:31 10° NNW
Ariane H10 4.1 18:23:41 10° SSW 18:25:51 17° SSE 18:29:22 10° ESE
Cosmos 1455 Rocket 3.9 18:26:10 10° NNE 18:29:55 29° E 18:33:42 10° SE
Hubble Space Telescope 2.3 18:26:24 10° W 18:29:56 27° NNW 18:33:28 10° NNE
ARIANE 5 R/B 3.9 18:27:03 10° WSW 18:30:56 38° SSE 18:49:01 10° ESE
Palapa B4 Rocket 3.5 18:29:34 10° W 18:34:10 55° SSW 18:37:49 10° ESE
Cosmos 1437 3.4 18:33:53 10° NNE 18:36:40 31° E 18:39:28 10° SSE
COSMO-SKYMED 1 4.4 18:33:42 10° NNW 18:37:33 32° WNW 18:41:25 10° SW
Cosmos 1898 Rocket 3.5 18:32:21 10° S 18:37:34 81° ESE 18:42:48 10° NNE
Ariane V96 H10-3 4.4 18:35:07 10° WSW 18:37:36 31° S 18:43:39 10° ESE
Alouette 2 Rocket 3.5 18:37:44 10° N 18:41:09 47° E 18:45:07 10° SSE
Okean 2 3.4 18:37:39 10° S 18:41:46 87° W 18:45:53 10° N
CSL-04 Debris 4.1 18:36:50 10° SSE 18:42:14 72° ENE 18:47:37 10° N
Ariane Rocket 3.4 18:37:48 10° SE 18:42:31 40° ENE 18:47:13 10° N
Cosmos 1544 4.3 18:41:12 10° NNE 18:44:07 23° E 18:47:01 10° SE
Cosmos 2100 Rocket 4.4 18:39:08 10° SSE 18:44:52 40° E 18:50:37 10° NNE
CZ-2C R/B 3.8 18:40:57 10° N 18:45:41 86° W 18:50:18 10° SSW
SWIFT 4.0 18:47:50 10° NW 18:50:53 19° N 18:52:50 14° NE
Cosmos 2278 Rocket 3.6 18:48:36 10° NE 18:51:36 15° ENE 18:54:36 10° ESE
Cosmos 2123 Rocket 4.0 18:45:46 10° N 18:52:04 81° E 18:58:20 10° S
SeaSat 1 2.4 18:50:00 10° SSE 18:54:55 90° ENE 18:59:50 10° NNW
Cosmos 2237 Rocket 4.4 18:51:49 10° SW 18:56:10 23° WNW 19:00:30 10° NNW
ATLAS CENTAUR Rocket 4.2 18:54:43 10° W 18:58:53 35° SSW 19:10:17 10° SE
FengYun 1-2 T 4.4 18:56:14 10° SSE 19:01:30 47° ENE 19:06:46 10° N
H-2A R/B 3.4 19:01:38 10° S 19:05:25 57° W 19:09:15 10° NNW
LE-5 4.1 19:04:25 10° NW 19:05:15 21° NW 19:05:15 21° NW
Cosmos 1025 Rocket 3.2 19:03:56 10° S 19:08:10 71° W 19:12:26 10° N
Cosmos 1937 Rocket 3.8 19:03:26 10° SSW 19:08:33 66° WNW 19:13:37 10° N
Cosmos 2016 Rocket 4.4 19:02:52 10° SSE 19:08:44 40° E 19:13:25 15° NNE
Cosmos 2061 Rocket 4.2 19:03:51 10° SSE 19:09:49 48° E 19:15:40 11° NNE
GPS 2-14 Rocket1 2.7 19:07:35 10° WSW 19:11:48 80° SSE 19:13:37 32° ENE
GPS 2-04 Rocket1 3.6 19:09:25 10° WNW 19:13:30 52° SW 19:17:38 10° SE
Okean 1-7 Rocket 4.2 19:10:14 10° SSE 19:14:21 36° E 19:15:32 30° ENE
Cosmos 1842 3.3 19:14:30 10° S 19:18:23 57° E 19:19:54 33° NNE
Sylda 4400 4.2 19:09:14 10° W 19:19:39 84° S 19:21:47 31° E
Cosmos 1844 4.0 19:14:40 10° NNW 19:20:23 71° WSW 19:26:08 10° S
Cosmos 1315 Rocket 4.3 19:17:18 10° SSW 19:20:58 36° W 19:24:34 10° NNW
Cosmos 2150 Rocket 4.0 19:17:16 10° S 19:22:44 84° ESE 19:26:44 19° NNE
SL-16 R/B 3.4 19:19:16 10° SW 19:24:32 40° WNW 19:29:47 10° N
Cosmos 967 Rocket 4.4 19:18:47 10° NNW 19:25:02 84° ENE 19:31:19 10° SSE
Cosmos 2298 Rocket 4.1 19:21:02 10° SSW 19:26:19 76° WNW 19:30:35 16° N
GOES 2 Rocket 3.2 19:22:51 10° WNW 19:28:08 81° SSW 19:30:22 29° SE
Cosmos 1378 4.2 19:25:18 10° SSE 19:27:39 30° SE 19:27:39 30° SE
ARIANE 5 DEB (SYLDA) 4.1 19:25:29 10° W 19:29:24 67° S 19:34:33 23° E
Cosmos 1447 Rocket 4.3 19:24:08 10° N 19:30:15 84° E 19:36:25 10° S
SL-24 R/B - RUBIN 2 4.3 19:25:42 10° S 19:30:24 38° ESE 19:30:38 38° ESE
Cosmos 1943 4.1 19:30:57 10° SSE 19:35:06 29° ESE 19:35:06 29° ESE
ATLAS 3B CENTAUR R/B 3.8 19:29:45 10° SW 19:36:34 62° SE 19:44:27 31° ENE
MAQSAT/ARIANE V 2.4 19:24:34 10° W 19:39:19 79° S 19:40:19 51° ESE
SPOT 3 Rocket 3.7 19:37:51 10° SSE 19:42:20 50° E 19:42:20 50° E
Cosmos 1892 Rocket 3.7 19:38:39 10° S 19:42:20 54° SE 19:42:20 54° SE
Envisat 3.2 19:38:50 10° S 19:43:53 72° W 19:48:56 10° NNW
ASTEX 1 3.2 19:39:03 10° S 19:43:56 80° E 19:45:33 43° N
GPS 2-05 Rocket1 4.1 19:41:09 10° WNW 19:43:56 34° SW 19:43:56 34° SW
CENTAUR R/B 4.2 19:39:49 10° WSW 19:44:08 24° WNW 19:48:44 10° N
SJ 16-02 2.3 19:42:07 10° SSW 19:46:20 45° WNW 19:48:24 26° NNW
Meteor 1-22 Rocket 4.1 19:55:26 63° NE 19:56:12 72° E 20:01:56 10° SSE
Cosmos 923 Rocket 4.4 19:53:52 10° NNW 19:59:04 63° WSW 20:04:18 10° S
Atlas Centaur 2 2.5 19:54:04 10° SW 20:01:56 75° SSE 20:02:49 66° E
Cosmos 1725 Rocket 4.3 20:06:36 10° SSW 20:12:50 65° W 20:14:51 43° NNW
Cosmos 1680 Rocket 3.9 20:12:50 53° WNW 20:13:40 61° WSW 20:18:54 10° S
Ariane H10+ 4.1 20:10:53 10° WSW 20:19:30 38° S 20:19:37 38° S
SEDSat Delta rocket 4.5 20:15:46 10° NW 20:20:15 46° NW 20:20:15 46° NW
Ariane H10+ 3.4 20:19:28 10° W 20:30:12 52° SW 20:30:12 52° SW
Milstar 3 4.2 20:25:56 10° SSW 20:31:06 28° SSE 20:31:06 28° SSE
Cosmos 2278 Rocket 3.4 20:30:16 10° NW 20:35:29 39° WSW 20:40:43 10° S
